Torna al catalogo

STARLINK-5249

AttivoComunicazioniVLEO
NORAD 54205·PAYLOAD·🇺🇸 United States

Lanciato Oct 28, 2022 da Vandenberg Space Force Base

Loading…

Prossimi Passaggi (prossime 24 ore)

TLE

AggiornatoSource: CelesTrak SupGP

Epoca: Sep 15, 2026, 02:43 UTC

1 54205C 22141BA  26258.11368056 -.00022917  00000+0 -73701-3 0  2580
2 54205  53.1575 214.8479 0001328  86.9052 239.3996 15.31710776    13

Traccia STARLINK-5249 in tempo reale con AllMySat

Download on the App Store